Location: Brachbach
(49.1847°N, 9.7240°E)
Time: 05:42:56
(UTC+00:00)

PCSat - Pass Details

Date: 19 March 2026
Orbit: 780 x 790 km, 67.1° (Epoch: 13 April)

Event Time Altitude Azimuth Distance (km) Brightness Sun altitude
Exits shadow 01:44:21 - 320° (NW) 2,978 12.6 -33.4°
Reaches altitude 10° 01:47:26 10° 345° (NNW) 2,365 12.3 -33.1°
Maximum altitude 01:49:23 12° 6° (N) 2,237 12.4 -32.9°
Drops below altitude 10° 01:51:20 10° 28° (NNE) 2,364 12.8 -32.6°
Sets 01:55:35 0° 60° (ENE) 3,293 13.8 -32.2°
